Wind_Speed
28 28 27 26 24 22 22 21 21 21 21 21 21 20 18 17 16 15 13 12 12 11 10 10 9 9 8 8 8 8 8 8 8 9 9 9 10 10 10 12 13 13 13 14
30 30 30 30 28 26 24 23 22 23 23 22 22 22 19 18 18 17 14 14 13 12 11 11 10 10 10 10 10 10 10 10 10 10 10 10 11 11 11 12 13 14 14 15
32 33 32 32 29 29 28 25 25 24 23 23 24 22 21 21 20 19 16 15 14 13 13 11 11 11 11 11 11 12 12 12 12 12 12 12 12 11 12 13 14 15 16 16
33 33 36 32 31 31 30 28 27 26 24 24 23 23 23 23 22 19 18 16 16 14 14 14 13 13 13 14 14 13 14 14 14 14 14 14 14 13 13 13 14 15 17 17
35 36 36 33 33 32 31 31 30 29 26 25 25 25 24 24 23 22 21 19 18 17 17 15 15 15 15 15 15 15 15 16 15 15 15 16 15 15 15 15 16 16 18 19
38 37 37 34 33 35 35 34 31 30 28 28 28 27 26 25 24 23 22 21 19 19 18 17 16 17 18 17 17 17 17 17 18 17 17 17 17 18 17 17 18 18 19 20
39 38 37 33 34 35 36 35 33 32 30 29 29 28 27 27 26 26 24 23 22 21 20 19 18 19 19 19 19 19 19 20 20 19 19 19 19 19 19 19 19 20 20 20
41 40 37 34 34 35 35 34 33 32 31 30 30 30 29 27 27 27 26 24 24 22 22 21 21 21 21 21 21 21 21 21 21 21 21 21 21 21 21 21 21 21 21 22
42 40 37 35 35 36 36 36 35 34 33 31 31 30 29 28 28 27 26 25 24 23 23 23 23 22 22 22 23 23 22 22 22 22 23 23 23 22 23 23 23 24 24 24
41 41 39 37 36 36 37 37 36 37 36 34 32 31 31 31 29 29 29 27 26 25 25 24 24 24 24 25 24 24 24 23 23 23 24 24 23 23 23 24 25 25 25 24
40 39 37 36 36 36 36 37 37 37 36 36 35 34 32 30 29 28 28 27 26 26 26 26 25 25 26 26 26 25 25 25 24 24 24 24 24 23 23 23 24 24 24 24
39 36 35 35 35 35 36 37 38 37 37 36 35 34 33 31 31 31 29 28 27 27 27 26 26 26 26 26 26 25 25 24 25 24 24 23 23 23 23 24 24 24 24 24
38 37 36 35 34 35 35 36 36 36 36 36 35 34 31 29 29 29 29 29 28 28 27 27 27 26 26 26 25 25 25 25 25 25 24 24 24 24 24 24 24 23 23 23
36 36 35 34 34 34 34 34 34 34 35 34 33 31 30 29 29 29 29 28 27 27 27 28 27 27 27 26 26 26 26 26 26 26 25 25 25 25 25 24 24 24 23 24
34 34 33 31 31 32 32 32 32 32 32 33 33 31 30 29 29 28 27 26 26 26 26 26 26 26 26 26 26 25 25 25 25 25 25 25 25 25 25 24 24 24 24 26
31 31 31 31 30 29 30 30 29 29 29 30 30 30 28 27 27 27 26 26 25 25 25 25 25 25 24 24 24 24 23 23 24 24 24 24 24 23 23 23 23 25 26 26
29 27 27 27 27 27 27 28 28 27 26 26 25 25 25 24 24 25 25 24 24 24 24 24 23 22 22 22 22 22 22 23 22 22 22 22 22 22 22 23 24 25 25 25
27 26 25 23 23 24 25 25 24 24 24 24 23 22 22 23 23 23 23 23 23 23 22 22 21 21 21 20 20 20 20 21 21 21 21 21 22 22 22 23 24 24 24 24
25 25 25 23 22 23 22 22 21 21 22 22 22 22 21 22 22 23 22 22 21 21 20 20 19 20 20 20 20 20 20 20 20 20 20 20 20 21 22 23 24 24 25 25
23 23 23 22 21 20 19 19 18 19 19 20 20 20 21 21 21 20 20 19 19 19 19 19 19 19 19 19 19 19 19 19 19 19 19 19 20 21 22 23 24 24 24 25
19 20 20 19 19 18 18 17 17 17 17 17 18 18 18 18 19 18 18 17 17 17 18 17 17 17 17 17 17 17 17 17 17 18 19 20 21 22 22 23 23 23 24 25
17 17 17 17 16 16 16 15 15 15 14 14 15 16 16 16 16 16 16 16 16 16 16 15 15 15 15 15 15 15 16 17 18 19 20 21 22 22 22 23 23 24 25 25
14 14 14 15 15 14 14 14 13 13 13 13 13 13 14 14 14 14 14 14 14 14 14 13 13 13 14 15 15 16 17 18 18 19 20 21 21 22 22 23 24 24 25 25
13 13 13 13 13 13 12 12 12 11 11 11 11 12 12 12 12 12 12 11 11 11 12 12 13 13 14 15 15 16 16 17 18 19 19 20 20 21 22 23 24 25 25 26
12 12 12 11 10 10 10 10 10 9 9 10 10 10 10 10 10 10 10 10 10 11 11 12 12 13 14 15 15 16 17 17 18 19 20 21 22 22 23 24 25 26 26 27
11 10 9 9 9 9 8 8 8 8 8 8 8 8 9 9 9 9 9 10 10 10 11 11 12 13 13 14 15 16 17 18 19 20 21 22 22 23 23 24 25 25 26 26
9 9 9 9 8 8 7 7 7 7 7 7 7 7 8 8 8 8 9 9 9 9 10 11 12 12 13 15 16 17 19 19 20 21 22 22 23 24 25 25 25 26 25 25
Wind_Direction
226 224 227 228 228 232 237 242 246 249 253 254 261 267 274 283 292 296 298 306 307 311 304 301 298 293 289 288 290 292 292 291 292 292 291 290 284 276 266 261 260 259 258 260
229 228 229 230 230 231 236 238 243 247 249 251 256 263 268 277 284 289 293 299 300 301 303 300 294 293 290 291 290 288 289 290 289 288 288 288 283 275 270 270 266 262 261 263
232 230 230 231 232 234 236 237 240 245 251 252 256 262 273 276 283 287 286 295 301 299 299 298 292 289 289 290 291 288 286 286 287 284 282 282 281 280 274 273 271 270 268 267
235 233 232 232 231 235 236 237 240 245 249 253 256 261 270 276 282 284 284 295 296 294 296 296 293 288 285 284 288 288 286 285 287 285 280 281 280 281 279 278 277 278 274 272
237 235 235 233 231 233 236 238 241 244 248 253 256 260 267 275 281 288 287 291 289 287 291 292 289 287 286 284 285 286 285 284 283 284 282 280 280 283 280 279 280 281 279 278
238 237 235 233 233 234 238 241 242 245 248 252 257 259 265 271 276 282 286 285 285 285 287 286 285 286 287 286 283 282 282 281 281 282 281 279 280 282 281 281 281 281 281 280
238 239 237 233 232 235 238 243 246 249 252 253 257 263 265 268 272 277 279 280 281 283 283 283 282 283 284 283 281 280 280 280 280 280 280 278 278 280 280 280 280 282 283 283
236 238 237 234 233 234 239 243 246 248 253 256 259 262 263 266 271 273 274 276 280 280 279 280 280 280 281 280 280 279 279 279 279 278 278 278 278 279 280 281 282 283 284 283
235 238 239 237 235 235 239 242 245 251 254 255 257 261 261 266 270 273 276 279 279 279 278 279 279 278 278 278 279 278 278 277 278 278 277 277 278 280 281 281 282 283 284 283
234 238 240 238 236 236 238 242 246 250 255 257 261 261 264 265 268 269 274 277 278 277 277 278 277 276 277 277 277 276 276 276 277 276 276 277 279 281 281 281 281 282 284 284
236 238 239 238 237 238 240 242 245 250 255 259 261 262 264 265 266 270 273 275 278 278 277 276 276 277 276 275 275 274 274 275 275 276 277 278 279 281 282 283 284 284 283 283
235 236 237 238 239 239 241 243 247 250 253 257 261 264 264 263 265 268 272 275 277 277 276 275 275 275 275 275 275 272 272 272 274 276 278 279 280 281 282 283 284 284 284 284
234 236 238 239 240 241 242 245 249 252 255 257 260 264 264 264 265 267 270 274 276 276 275 275 274 273 273 272 272 271 271 270 271 273 276 278 279 279 282 283 283 283 284 284
234 236 238 237 237 239 243 245 248 251 254 255 256 260 263 266 268 268 270 271 272 273 274 273 271 271 271 270 270 270 271 271 272 273 274 276 277 278 280 281 282 282 282 284
234 234 235 235 237 241 243 244 246 248 252 253 255 259 262 264 266 268 269 270 271 272 273 272 270 269 269 269 269 270 270 271 273 272 272 275 276 278 279 278 280 282 285 286
233 234 236 237 239 242 245 246 247 247 251 253 255 258 259 262 263 264 266 269 270 270 270 270 269 268 269 271 272 270 268 269 272 273 273 275 276 277 278 278 281 283 286 288
234 237 237 239 242 245 247 247 247 247 248 250 254 256 258 260 262 262 264 266 267 268 269 270 268 267 268 271 272 270 269 271 272 272 272 274 276 276 277 280 283 285 287 288
236 240 240 242 243 246 248 249 248 248 249 253 256 258 259 260 261 263 264 265 265 265 267 267 267 267 268 270 272 274 272 271 272 272 274 276 276 277 279 282 284 286 288 290
234 237 240 244 246 248 247 245 246 246 248 252 257 257 258 260 261 261 263 263 263 264 265 266 266 267 266 267 271 272 273 274 273 274 276 277 277 280 284 286 287 289 290 291
232 233 235 236 238 239 240 240 243 245 246 249 252 255 257 259 260 261 261 262 262 262 262 263 266 266 266 267 269 270 271 273 274 274 276 278 281 282 285 287 288 289 290 291
226 229 230 231 234 237 237 237 239 243 245 248 251 253 254 255 256 256 257 259 260 261 261 261 263 265 267 269 270 271 272 273 274 276 278 281 283 285 287 289 290 291 292 293
225 225 225 227 227 228 231 233 235 238 242 245 248 249 250 253 253 254 255 257 258 260 260 260 262 266 269 270 272 276 277 277 277 278 280 283 286 288 289 290 291 294 295 295
215 215 218 221 220 222 227 230 233 236 240 244 247 248 248 249 250 252 255 256 259 259 259 261 264 268 270 272 275 278 278 277 278 281 284 287 289 290 292 293 294 295 297 297
209 214 218 218 219 222 226 229 231 234 237 239 241 244 246 247 246 247 249 253 256 259 261 265 269 271 274 277 278 280 281 282 284 286 288 290 292 294 294 295 296 298 299 299
204 205 205 206 209 212 216 221 223 225 230 235 237 238 240 241 242 245 249 255 259 264 266 267 270 274 278 279 280 282 284 287 288 290 291 292 294 295 295 296 297 299 300 300
188 192 198 203 204 207 213 215 216 221 228 231 231 231 233 236 242 248 255 261 265 267 269 272 275 278 281 283 285 287 289 291 293 294 295 296 297 298 298 298 299 300 301 301
179 185 189 191 192 198 202 207 212 216 218 217 217 221 230 240 248 253 258 264 269 272 275 277 279 283 287 290 291 292 293 294 295 296 297 297 298 298 299 299 300 300 301 301
Height
5839 5842 5844 5847 5849 5851 5853 5855 5856 5858 5859 5861 5862 5862 5863 5863 5864 5864 5863 5863 5863 5862 5861 5861 5860 5860 5859 5859 5859 5859 5859 5858 5858 5857 5856 5856 5855 5855 5854 5854 5854 5854 5854 5854
5833 5837 5839 5841 5844 5846 5848 5850 5851 5852 5854 5856 5857 5858 5859 5860 5861 5861 5860 5860 5860 5859 5858 5858 5857 5857 5857 5857 5857 5856 5856 5856 5855 5854 5853 5853 5852 5851 5851 5850 5850 5850 5850 5849
5827 5830 5833 5836 5840 5841 5843 5844 5846 5847 5850 5851 5853 5854 5855 5856 5857 5857 5858 5857 5856 5855 5854 5854 5854 5854 5854 5854 5854 5853 5853 5852 5851 5851 5850 5849 5848 5847 5847 5846 5846 5846 5845 5845
5821 5825 5826 5833 5835 5836 5838 5840 5841 5842 5844 5846 5848 5850 5851 5852 5852 5852 5853 5853 5852 5852 5851 5851 5850 5850 5850 5850 5850 5849 5849 5848 5848 5847 5846 5845 5844 5843 5843 5842 5842 5841 5840 5839
5814 5817 5820 5826 5828 5830 5832 5834 5836 5838 5840 5842 5843 5845 5846 5847 5848 5848 5848 5848 5848 5848 5848 5847 5846 5845 5846 5846 5846 5845 5845 5844 5844 5843 5842 5841 5840 5839 5838 5838 5837 5836 5835 5834
5806 5810 5813 5820 5823 5824 5827 5827 5830 5833 5835 5837 5838 5840 5842 5842 5843 5843 5843 5843 5842 5843 5843 5843 5842 5842 5841 5841 5841 5840 5840 5839 5839 5838 5837 5836 5835 5834 5833 5832 5831 5831 5830 5829
5798 5802 5806 5813 5816 5818 5821 5823 5825 5827 5829 5831 5833 5835 5836 5836 5837 5837 5837 5837 5837 5837 5837 5837 5837 5837 5836 5836 5835 5835 5835 5834 5833 5833 5832 5831 5830 5829 5828 5827 5826 5825 5824 5823
5791 5794 5801 5805 5809 5812 5814 5817 5818 5820 5822 5824 5825 5827 5828 5829 5830 5830 5830 5831 5830 5830 5831 5831 5831 5831 5831 5830 5829 5829 5829 5828 5828 5827 5826 5825 5824 5823 5822 5821 5820 5819 5818 5816
5784 5789 5793 5797 5801 5805 5807 5810 5812 5813 5815 5817 5818 5820 5821 5823 5823 5823 5824 5824 5824 5824 5824 5824 5824 5825 5824 5824 5823 5823 5822 5821 5821 5820 5820 5819 5818 5817 5816 5815 5814 5812 5811 5809
5775 5780 5785 5789 5793 5796 5799 5802 5805 5806 5808 5810 5811 5813 5814 5815 5816 5816 5817 5818 5818 5818 5818 5818 5818 5818 5818 5817 5817 5816 5815 5815 5814 5813 5813 5812 5811 5810 5809 5808 5806 5805 5804 5802
5767 5772 5776 5781 5785 5788 5792 5794 5797 5799 5801 5802 5803 5804 5806 5807 5808 5809 5810 5810 5811 5811 5810 5810 5811 5811 5810 5810 5810 5809 5808 5807 5807 5806 5805 5804 5804 5803 5802 5801 5799 5797 5796 5794
5759 5764 5769 5773 5777 5780 5783 5786 5789 5791 5793 5794 5795 5797 5798 5799 5800 5801 5802 5803 5803 5803 5803 5804 5803 5803 5803 5802 5802 5801 5801 5800 5799 5798 5798 5797 5796 5796 5794 5793 5791 5790 5788 5787
5752 5757 5761 5765 5768 5772 5775 5778 5780 5782 5785 5786 5788 5789 5790 5791 5792 5794 5794 5795 5795 5795 5796 5796 5796 5795 5795 5795 5794 5794 5793 5792 5791 5791 5790 5790 5789 5788 5787 5786 5784 5782 5781 5779
5745 5749 5752 5756 5760 5763 5766 5769 5771 5774 5776 5778 5780 5781 5782 5783 5784 5786 5786 5787 5787 5787 5788 5788 5788 5787 5787 5787 5786 5786 5786 5785 5784 5783 5783 5782 5782 5780 5779 5778 5777 5775 5774 5772
5737 5741 5744 5747 5751 5755 5758 5761 5763 5765 5767 5769 5771 5772 5774 5776 5777 5777 5778 5779 5779 5779 5780 5780 5779 5779 5779 5779 5779 5778 5778 5777 5777 5776 5775 5775 5774 5773 5772 5771 5770 5768 5766 5765
5731 5734 5737 5740 5744 5747 5750 5753 5755 5758 5759 5761 5763 5764 5766 5767 5769 5770 5770 5771 5771 5772 5772 5772 5772 5771 5771 5771 5770 5770 5770 5770 5770 5769 5768 5767 5767 5766 5765 5763 5762 5761 5759 5757
5724 5727 5730 5733 5737 5740 5743 5745 5748 5750 5752 5754 5756 5757 5759 5760 5761 5762 5763 5764 5764 5764 5764 5764 5765 5764 5764 5764 5764 5764 5763 5763 5763 5762 5761 5761 5760 5759 5758 5756 5755 5753 5752 5749
5718 5721 5724 5727 5730 5733 5736 5738 5740 5742 5745 5747 5749 5751 5752 5753 5754 5755 5756 5756 5757 5757 5757 5757 5758 5758 5758 5758 5758 5758 5757 5757 5756 5756 5755 5754 5753 5752 5751 5749 5748 5746 5744 5741
5713 5716 5720 5723 5725 5728 5730 5732 5734 5736 5739 5741 5743 5744 5745 5746 5747 5748 5749 5749 5750 5750 5751 5751 5751 5752 5752 5752 5752 5752 5751 5750 5750 5749 5749 5748 5747 5745 5744 5742 5740 5738 5736 5734
5708 5712 5715 5718 5720 5723 5725 5727 5729 5731 5733 5735 5737 5738 5739 5740 5741 5741 5742 5743 5744 5744 5745 5745 5745 5746 5746 5746 5746 5745 5745 5744 5744 5743 5743 5742 5740 5739 5737 5735 5733 5731 5729 5727
5704 5707 5710 5712 5715 5718 5720 5722 5724 5726 5728 5729 5731 5732 5733 5734 5735 5736 5737 5738 5738 5739 5739 5740 5740 5740 5740 5740 5739 5739 5739 5738 5738 5737 5736 5735 5733 5732 5730 5728 5726 5724 5721 5719
5700 5703 5706 5708 5711 5713 5716 5718 5720 5722 5723 5725 5726 5727 5728 5729 5730 5731 5732 5733 5733 5734 5734 5734 5734 5734 5734 5734 5734 5734 5733 5732 5732 5731 5729 5728 5727 5725 5723 5721 5719 5717 5714 5711
5697 5700 5702 5705 5708 5710 5712 5714 5716 5718 5719 5721 5722 5723 5724 5725 5726 5727 5728 5728 5729 5729 5729 5729 5730 5730 5730 5729 5729 5728 5727 5726 5725 5724 5723 5721 5720 5718 5716 5714 5712 5709 5707 5704
5694 5697 5700 5702 5704 5707 5709 5711 5712 5714 5716 5717 5718 5719 5720 5721 5722 5723 5723 5724 5724 5725 5725 5725 5725 5725 5725 5724 5724 5723 5722 5721 5720 5718 5717 5715 5713 5712 5709 5707 5705 5702 5700 5697
5693 5695 5697 5699 5702 5704 5706 5708 5709 5711 5713 5714 5715 5716 5717 5718 5719 5719 5720 5720 5721 5721 5721 5721 5721 5720 5720 5719 5718 5718 5717 5715 5714 5713 5711 5709 5707 5705 5703 5700 5698 5695 5692 5689
5692 5694 5696 5698 5700 5702 5703 5705 5707 5709 5710 5711 5712 5713 5714 5715 5716 5716 5717 5717 5717 5717 5717 5716 5716 5716 5715 5714 5713 5712 5711 5710 5708 5706 5705 5702 5700 5698 5695 5693 5690 5687 5684 5681
5691 5693 5695 5697 5699 5700 5702 5704 5705 5707 5708 5709 5710 5711 5712 5713 5713 5713 5714 5714 5713 5713 5713 5712 5712 5711 5711 5709 5708 5707 5705 5704 5702 5700 5698 5696 5693 5691 5688 5686 5683 5680 5677 5674